Overview Statistics Trail Chart Weather Telemetry Raw packets
 

This is the latest recevied weather packets stored in our database for station/object WA1NHP. If no packets are shown the sender has not sent any weather packets the latest 10 day(s).

<< 49 50 51 52 53 54 55 >>
Time Temp. Humidity Pressure Rain* Wind** Luminosity Snow
1787867045 22.22° C 76% 1023.9 hPa 0 mm - 47 W/m² -
1787866444 22.22° C 76% 1023.9 hPa 0 mm - 58 W/m² -
1787865844 22.78° C 78% 1023.9 hPa 0 mm - 81 W/m² -
1787865244 22.78° C 79% 1023.9 hPa 0 mm - 104 W/m² -
1787864643 22.78° C 80% 1023.9 hPa 0 mm - 86 W/m² -
1787864044 22.78° C 81% 1023.9 hPa 0 mm - 98 W/m² -
1787863444 22.78° C 82% 1023.9 hPa 0 mm - 118 W/m² -
1787862844 22.22° C 83% 1023.9 hPa 0 mm - 97 W/m² -
1787862244 22.22° C 81% 1023.9 hPa 0 mm - 60 W/m² -
1787861644 22.22° C 81% 1023.9 hPa 0 mm - 46 W/m² -
1787861044 22.22° C 80% 1023.9 hPa 0 mm - 42 W/m² -
1787860444 22.78° C 79% 1023.9 hPa 0 mm - 51 W/m² -
1787859844 23.33° C 78% 1023.9 hPa 0 mm - 197 W/m² -
1787859244 23.33° C 80% 1023.9 hPa 0 mm - 144 W/m² -
1787858644 23.33° C 77% 1023.9 hPa 0 mm - 185 W/m² -
1787858044 23.33° C 79% 1023.9 hPa 0 mm - 153 W/m² -
1787857444 23.89° C 78% 1023.9 hPa 0 mm - 128 W/m² -
1787856844 23.89° C 80% 1023.9 hPa 0 mm - 675 W/m² -
1787856244 24.44° C 73% 1023.9 hPa 0 mm - 171 W/m² -
1787855644 24.44° C 78% 1023.9 hPa 0 mm - 814 W/m² -
1787855044 23.89° C 78% 1023.9 hPa 0 mm - 213 W/m² -
1787854444 24.44° C 78% 1023.9 hPa 0 mm - 241 W/m² -
1787853844 24.44° C 78% 1023.9 hPa 0 mm - 891 W/m² -
1787853244 24.44° C 78% 1023.9 hPa 0 mm - 452 W/m² -
1787852644 24.44° C 81% 1023.9 hPa 0 mm - 232 W/m² -

* Rain latest hour (hover to see other rain measurements)
** Current wind speed in m/s (hover to see current wind gust speed)